sat.trackr.live / text

‹ back to catalog

SNUSAT-2

NORAD 43782 · 2018-099AA

PAYLOAD ACTIVE UNKNOWN

§ Identity

Operator
Country
SKOR
Launch date
2018-12-03
Launch site
AFWTR
Launch vehicle
Mass (kg)
RCS (m²)

External: N2YO · Heavens-Above · Gunter

§ Orbital elements

Epoch: 2026-09-15T09:02:29.368320Z

Period
94.55 min
Inclination
97.3963°
Eccentricity
0.0009325
Mean motion
15.23039819 rev/d
Perigee alt
490.3 km
Apogee alt
503.1 km
Semi-major
6,874.8 km
B*
3.0209e-4
RAAN
310.4065°
Arg perigee
348.9355°
Mean anomaly
11.1675°
Rev number
42,675

§ Raw data

SNUSAT-21 43782U 18099AA  26258.37672880  .00007051  00000+0  30209-3 0  99942 43782  97.3963 310.4065 0009325 348.9355  11.1675 15.23039819426754

JSON: /api/v1/satellites/43782 · /tle

For live sub-satellite position, see the globe view (requires WebGL).

§ Visibility from observer

Set your observer location to see the next 7 days of passes ≥ 10°. The values pass through the URL so the page stays shareable.

No JS? Fill the form by hand. The geolocation button needs JavaScript.

§ Radio — SatNOGS DB

ModeDescriptionDownlinkUplink
BPSK BPSK2k4 TLM (inactive) 437.625 MHz
BPSK BPSK9k6 TLM (inactive) 437.625 MHz
DQPSK DQPSK 1.06Mbit/s (inactive) 2.402 GHz

3 transmitters · refreshed weekly from db.satnogs.org